Wind_Speed
5 6 6 6 4 5 5 3 2 2 2 3 3 3 3 2 2 3 5 7 9 10 10 11 12 14 15 15 10 6 5 7 9 13 17 18 18 17 17 18 19 19 19 18 18 17 15 14 12 9 6 6 6 5 5 3 1 2 1 2 4 1 2 1 1 2 3 1 5 6 10 10 9 11 11 8 9 11 16 16 16 22 16 13 15 18 32 40
4 4 5 4 4 5 5 3 1 1 2 3 3 3 3 2 2 3 5 7 9 10 10 11 12 15 16 15 9 4 3 4 9 15 18 18 17 16 15 16 17 18 18 18 19 19 19 17 14 11 7 6 6 5 5 4 3 1 2 1 3 1 3 4 5 9 7 5 13 14 11 7 9 12 15 9 6 13 13 9 12 17 15 13 15 23 37 42
3 3 3 3 4 4 4 3 1 1 2 3 3 4 3 2 2 3 5 7 8 9 9 10 13 16 17 15 9 4 1 2 9 15 17 17 16 14 14 15 16 17 18 18 17 17 17 15 14 12 8 6 6 7 6 5 4 1 1 2 2 3 7 7 9 12 10 12 14 15 19 15 10 9 12 10 8 13 12 13 13 15 18 18 19 32 41 44
3 3 2 3 4 4 4 3 0 1 2 3 4 4 3 2 1 3 5 7 8 9 9 9 12 16 18 14 8 4 1 1 8 14 14 15 14 14 14 14 16 17 17 15 14 13 13 12 11 11 8 6 7 8 6 5 5 4 2 2 3 6 5 10 17 16 14 15 14 15 17 13 12 12 9 9 7 7 12 23 24 23 27 25 26 38 44 46
2 3 2 2 4 4 4 2 0 2 3 4 4 4 3 2 1 2 4 6 8 9 9 9 11 15 17 11 6 5 2 1 7 12 13 14 14 14 14 14 16 16 16 13 11 11 10 10 9 9 7 6 6 6 3 6 7 4 1 1 5 8 3 14 23 19 18 18 15 15 12 13 17 15 10 10 8 7 16 27 29 30 33 30 32 41 45 47
2 2 2 2 4 4 4 3 0 2 3 4 5 5 4 3 2 2 4 6 8 10 11 11 11 14 15 9 4 5 5 2 7 11 12 13 13 14 14 14 15 15 14 11 11 12 12 12 10 7 5 4 4 2 3 8 7 3 3 4 9 8 4 15 22 22 23 18 14 13 12 17 18 14 12 13 14 12 19 29 29 29 33 33 35 43 47 48
1 2 2 2 3 4 4 3 1 3 3 4 5 6 5 4 3 2 3 5 7 10 12 13 12 14 14 8 3 4 6 5 7 11 11 13 13 13 14 14 14 13 12 11 11 13 13 14 12 8 5 3 3 1 5 10 7 1 3 6 8 9 9 15 20 23 24 20 16 15 14 15 13 11 11 12 17 16 16 23 28 26 30 35 38 46 50 51
1 1 2 2 2 3 4 3 1 3 4 5 6 7 6 5 4 2 2 4 6 9 11 13 13 14 12 7 4 4 6 6 8 11 12 13 13 12 14 14 14 12 12 13 13 12 11 11 12 8 4 2 2 2 7 9 5 2 3 6 8 11 14 16 19 22 24 23 21 17 14 14 14 14 12 15 18 18 16 17 23 24 28 36 41 48 51 52
1 1 2 2 2 4 4 2 2 3 4 5 7 7 7 6 4 3 1 2 5 7 10 12 13 15 12 7 6 5 5 7 8 11 12 12 12 12 14 14 14 13 12 14 13 10 9 8 9 7 3 3 2 2 5 4 2 1 3 9 10 14 17 18 18 20 23 25 22 17 13 16 18 14 12 17 19 19 18 15 18 21 28 37 42 48 51 52
0 1 1 1 2 4 4 2 2 3 4 6 7 8 8 7 5 4 3 2 4 6 9 11 12 14 12 7 6 5 6 8 8 10 11 12 12 12 14 15 15 14 12 12 10 9 9 7 8 8 6 5 3 3 2 1 2 4 9 12 13 17 19 17 17 19 23 24 21 13 11 19 21 12 6 11 14 16 18 15 15 20 29 38 43 47 49 50
0 1 2 1 3 4 4 3 2 3 4 5 7 8 8 8 6 5 4 4 5 7 9 11 12 13 12 7 4 5 8 9 8 10 12 12 13 12 14 15 15 15 13 11 8 7 8 7 8 8 5 3 5 6 3 1 3 8 11 11 13 16 16 16 14 17 17 14 15 10 10 17 16 10 9 13 14 12 15 16 16 20 29 38 41 43 44 45
1 2 2 2 4 4 3 2 2 2 3 4 6 8 8 8 7 7 6 6 7 9 11 11 11 12 13 6 2 7 10 10 9 11 12 13 13 13 13 13 14 15 13 11 7 5 6 7 7 7 5 5 6 6 3 5 10 11 7 5 10 9 9 13 13 18 13 7 12 10 9 13 12 7 7 15 19 13 13 16 18 21 29 36 38 39 40 41
2 2 2 3 4 4 3 2 2 2 3 4 5 7 8 9 8 8 7 8 9 10 12 12 11 12 12 6 3 8 10 10 11 12 12 12 12 12 12 12 13 13 12 10 6 4 5 6 7 6 7 7 4 4 8 12 13 11 4 1 5 6 6 10 11 16 13 11 16 8 6 11 10 9 8 12 19 15 12 15 18 22 29 35 36 36 36 38
3 2 2 3 4 4 3 1 2 2 2 3 5 7 8 8 8 8 8 9 9 11 11 12 12 11 11 6 4 8 10 10 12 13 12 11 12 11 10 11 11 12 11 9 6 5 6 6 6 6 7 7 6 8 9 9 7 5 4 1 1 3 5 5 5 6 6 13 20 10 8 10 4 6 11 15 19 17 15 17 19 24 29 33 34 33 33 35
3 1 2 3 4 5 3 1 1 1 2 3 4 6 7 8 8 8 8 8 9 11 12 13 13 12 11 7 3 7 9 11 13 14 13 12 11 11 10 10 11 11 10 8 5 5 6 6 6 5 5 6 5 5 5 4 3 1 2 3 1 2 4 7 8 5 5 9 14 11 7 7 5 7 11 16 18 19 19 19 21 25 29 33 33 31 33 35
2 1 2 3 4 3 2 1 1 1 2 3 4 5 6 7 8 8 8 9 11 11 12 14 13 12 9 4 4 8 10 13 14 13 12 12 11 10 10 10 10 10 9 6 4 5 7 6 5 4 4 3 1 1 3 4 3 1 2 3 3 3 3 6 7 7 8 5 7 11 6 2 3 7 12 15 14 17 18 19 22 25 29 32 32 32 35 37
2 2 2 3 3 2 1 1 1 2 2 3 4 4 5 7 8 8 9 11 12 13 15 14 14 12 5 2 6 10 12 14 14 12 11 10 10 10 10 10 9 9 8 5 4 5 6 4 3 3 2 0 2 3 2 4 4 2 1 3 4 4 3 4 5 6 5 5 6 10 8 6 4 2 7 14 15 17 18 18 21 25 27 29 31 33 36 39
3 2 2 3 3 1 1 2 2 2 3 3 3 3 4 7 8 9 11 12 13 13 13 10 8 6 2 2 8 13 14 14 13 10 9 9 9 10 10 11 9 9 6 4 4 5 5 3 1 1 1 1 2 3 2 6 5 3 3 3 3 3 5 6 6 4 0 3 6 7 8 9 9 6 6 11 14 18 19 19 21 25 27 27 30 34 37 42
4 3 3 3 2 2 2 2 2 2 3 2 2 2 4 7 9 10 10 10 11 8 5 5 4 3 5 8 11 13 14 12 11 8 7 8 8 9 10 11 10 7 4 1 2 3 4 2 1 1 3 4 6 7 9 10 7 6 4 4 4 4 6 6 7 5 2 3 6 7 8 8 9 11 9 10 14 17 19 19 20 25 26 26 30 35 39 42
4 4 3 3 2 2 2 2 3 3 2 1 1 2 4 5 5 5 7 9 10 8 8 10 10 10 11 12 12 13 12 11 10 6 6 8 9 9 9 9 7 3 2 2 1 2 3 2 3 6 9 9 9 11 13 12 8 4 2 3 5 5 7 5 6 5 1 1 5 6 8 7 9 10 11 14 14 16 19 19 20 22 22 25 31 35 37 37
5 4 4 3 2 2 2 3 3 3 2 2 2 2 3 3 2 4 8 8 7 9 10 10 11 12 11 11 11 11 11 10 7 4 6 8 8 7 6 5 2 2 2 2 2 2 3 3 9 12 11 11 10 9 11 11 8 5 4 5 6 7 9 8 6 6 2 1 5 6 7 7 8 9 12 15 12 13 19 19 19 21 20 24 31 33 33 32
6 5 4 3 3 2 3 3 3 3 2 2 2 2 3 3 3 6 7 6 8 9 8 8 9 10 9 9 8 10 11 9 5 5 8 8 6 5 5 2 1 2 2 3 2 1 2 7 14 15 10 8 9 7 9 11 10 7 6 5 7 5 5 8 7 6 2 2 5 8 8 8 8 9 11 14 12 14 21 20 20 22 19 23 30 31 31 31
7 6 5 4 3 3 3 3 4 3 3 3 3 2 2 4 5 7 7 5 8 6 5 6 7 7 7 6 6 9 9 5 4 7 8 6 6 6 6 3 2 3 1 3 3 3 4 8 10 11 8 6 8 8 8 9 8 7 6 6 9 6 3 5 5 2 3 5 5 6 6 6 7 8 9 14 16 16 19 21 22 24 23 25 31 33 35 36
8 7 5 4 3 3 4 4 4 3 3 3 3 2 2 4 4 7 7 3 4 4 3 5 5 6 6 5 6 8 8 7 6 6 8 7 6 5 5 4 2 3 3 5 6 5 10 15 11 8 6 6 9 8 8 7 5 7 9 9 11 8 6 7 4 2 1 3 6 4 4 5 5 8 7 9 14 13 15 18 19 22 23 24 28 31 34 37
9 7 6 5 4 4 4 4 4 3 3 3 2 2 3 4 5 7 6 2 3 5 2 3 4 4 4 4 6 9 10 7 4 6 10 9 7 4 4 3 2 3 4 4 5 6 11 14 8 5 5 4 7 7 7 8 5 6 10 13 15 10 7 8 3 3 3 3 5 5 2 4 4 9 8 5 9 11 12 13 15 18 19 20 25 29 31 33
9 8 7 6 5 4 5 4 4 4 3 2 2 2 3 4 5 6 3 4 3 4 1 1 1 2 3 5 9 12 8 3 5 11 10 8 7 5 4 3 3 4 4 3 3 4 6 5 1 2 4 4 7 7 7 8 5 5 6 12 16 11 8 8 3 2 2 3 2 5 4 4 2 6 9 8 10 11 10 9 11 17 20 21 26 29 31 33
10 9 8 6 5 5 6 4 3 4 2 1 1 2 3 4 5 3 3 5 3 3 2 1 1 2 4 8 13 9 3 5 10 9 3 5 6 5 5 3 3 4 2 1 3 2 3 3 2 2 3 4 5 6 6 8 6 4 1 8 12 11 11 9 6 5 4 3 2 4 6 3 3 5 7 10 11 11 11 9 9 16 20 22 26 30 32 34
11 10 9 7 6 7 6 4 3 4 3 1 0 1 3 4 4 1 3 4 2 2 1 2 1 3 7 12 12 5 4 7 6 2 3 7 7 5 5 5 4 6 3 3 3 3 1 2 3 2 2 3 4 5 4 6 7 3 1 4 8 9 9 7 6 6 5 3 3 5 6 3 4 3 5 10 12 12 13 13 10 15 20 21 25 29 30 32
11 11 10 8 7 7 6 5 4 4 4 2 0 1 3 4 2 2 5 1 3 1 1 2 2 5 10 12 7 3 3 3 0 4 8 9 7 5 7 8 5 6 5 6 6 6 4 4 2 2 2 4 5 5 4 7 8 2 3 1 4 4 5 5 5 5 4 4 5 5 7 4 3 2 5 9 11 12 12 11 10 16 22 23 24 28 28 30
12 12 10 9 8 8 7 6 5 4 4 2 0 1 3 3 2 5 3 2 1 1 2 3 3 6 11 9 4 2 1 2 3 6 8 6 6 8 9 10 6 3 2 4 7 10 12 9 2 3 6 5 3 5 5 9 9 3 3 2 3 3 4 4 4 4 3 4 5 6 9 6 2 2 6 7 9 11 10 9 10 13 20 22 24 27 29 30
13 12 11 10 9 9 8 6 6 5 3 2 1 1 1 1 4 6 1 3 1 3 3 3 3 3 6 4 3 5 3 4 5 4 5 5 4 6 6 4 4 3 3 2 4 8 10 6 2 5 7 4 2 4 4 7 8 5 2 2 2 2 3 2 3 3 3 4 4 6 11 8 4 3 5 6 7 10 10 9 10 12 17 22 25 28 30 30
13 13 12 10 9 9 8 7 6 5 3 3 1 1 1 2 3 1 2 3 2 3 2 1 3 3 4 3 3 4 3 4 4 4 2 3 3 4 3 2 1 4 4 3 4 7 5 3 2 3 3 4 2 3 2 2 3 4 2 2 2 1 1 2 2 2 3 4 3 5 9 6 4 4 4 7 7 9 10 12 15 18 23 26 27 29 30 29
13 13 12 11 10 9 8 7 6 6 4 3 2 0 4 4 1 3 3 3 1 2 1 1 3 3 3 4 3 3 2 2 3 4 1 1 2 3 3 0 2 2 1 2 4 5 5 3 2 2 1 4 3 2 2 1 1 3 3 2 2 2 2 2 2 2 3 3 1 5 6 2 2 2 4 7 6 5 10 14 18 20 22 24 25 27 28 28
13 13 12 11 11 9 8 7 7 7 6 4 3 2 4 1 4 3 2 4 2 2 1 0 4 5 2 1 4 3 2 2 3 3 2 3 3 3 3 3 2 2 1 2 2 1 3 4 2 2 1 3 3 2 1 2 3 3 2 2 2 1 1 2 2 1 1 1 2 6 4 2 2 1 3 5 3 1 6 11 15 17 18 20 21 24 25 26
13 13 13 12 11 10 8 8 8 7 7 5 3 5 2 3 4 2 3 4 1 2 1 2 3 4 3 3 4 1 2 2 3 4 2 2 1 2 2 2 1 1 1 2 2 1 2 6 5 4 3 5 3 2 3 2 2 1 1 2 2 1 0 2 2 2 1 1 2 4 2 1 1 0 4 3 0 3 6 11 17 19 20 22 22 24 26 26
13 13 13 12 11 10 9 9 9 8 8 5 4 3 4 4 2 3 3 0 1 1 2 3 4 3 4 4 4 3 3 1 3 4 2 1 2 3 2 2 3 3 2 1 2 2 2 6 7 5 3 3 2 2 2 1 2 1 1 1 2 1 1 2 2 2 0 1 0 1 0 2 1 1 4 4 4 4 5 10 16 20 23 24 24 26 28 28
14 13 12 12 11 11 10 9 9 9 7 4 4 2 5 2 2 4 3 2 2 2 3 3 2 1 3 3 4 4 3 2 2 3 3 2 2 3 2 3 3 4 3 3 2 2 2 7 8 3 2 0 3 3 1 1 1 2 2 2 2 2 1 2 2 1 1 1 1 2 2 2 1 1 3 5 5 3 3 6 10 17 22 22 23 26 27 28
14 13 12 12 11 11 11 10 10 9 5 4 1 3 3 2 2 3 4 4 2 2 5 2 2 0 1 2 4 4 3 3 2 2 2 2 2 3 1 2 4 4 3 4 2 2 1 5 7 2 2 3 2 3 1 1 2 2 1 2 2 1 1 1 1 1 1 0 1 2 3 2 0 1 2 3 3 2 2 5 7 11 17 19 20 23 25 25
15 13 11 11 12 12 11 11 11 8 4 3 1 3 1 2 2 3 5 4 2 2 2 3 2 1 1 2 3 4 3 2 2 3 1 1 2 2 2 0 3 3 3 5 2 2 1 2 5 3 3 3 1 1 1 2 1 1 1 1 1 1 1 1 1 1 1 1 1 1 3 2 1 1 1 1 1 2 1 3 5 9 15 17 19 21 23 24
15 10 8 12 13 12 12 12 10 7 3 2 4 2 1 2 2 4 6 4 3 2 1 3 3 0 2 3 2 3 2 1 1 1 1 1 3 2 1 1 1 1 2 4 2 2 1 1 4 6 4 2 1 1 0 1 1 1 2 3 2 2 1 0 1 1 0 1 1 1 1 2 2 2 2 2 2 0 1 1 2 8 14 16 17 19 21 23
15 6 6 13 14 13 15 11 6 4 2 1 3 1 1 1 3 4 5 5 3 3 2 3 4 3 2 1 1 2 2 2 1 1 2 2 1 2 1 1 1 2 1 1 1 2 0 1 3 6 6 2 2 0 1 2 1 1 0 2 2 2 1 1 1 0 1 0 1 3 1 3 2 1 3 3 2 1 1 1 1 8 14 15 16 18 19 21
13 4 6 15 16 16 15 7 1 2 2 2 2 2 1 2 3 4 5 5 3 2 2 1 2 3 2 2 1 1 1 2 1 1 3 3 3 4 2 2 3 2 1 1 3 2 1 0 2 5 6 4 1 2 1 0 2 2 1 1 1 1 1 1 1 1 1 0 1 1 1 1 1 1 3 4 4 4 3 2 2 8 14 15 15 16 17 18
10 4 9 16 17 18 13 2 2 2 1 2 2 2 3 2 2 3 4 4 2 2 2 1 2 2 2 2 1 1 2 3 2 3 3 3 4 6 5 5 5 1 1 2 3 0 1 1 2 5 6 3 2 2 2 2 2 2 1 1 1 1 2 3 1 2 1 1 2 1 2 2 1 3 4 5 5 4 1 1 2 8 13 15 15 15 15 15
8 6 9 15 18 19 10 1 2 4 3 1 1 1 2 3 4 4 3 4 4 3 2 1 3 3 1 2 2 2 3 2 2 3 2 1 4 6 5 3 2 1 0 1 2 1 1 1 2 4 6 5 5 4 3 2 1 1 2 2 1 2 3 3 1 1 1 1 1 1 2 1 3 4 5 6 5 6 6 5 3 8 12 14 14 14 14 14
8 6 6 12 18 16 6 2 3 3 2 2 1 1 2 2 5 5 4 4 4 5 3 0 2 3 2 2 1 1 2 3 3 3 2 2 5 7 3 1 2 2 2 2 2 1 1 2 0 2 2 4 4 4 3 4 4 3 3 2 0 2 3 2 2 1 1 1 1 2 1 1 4 6 7 8 6 6 7 8 6 6 10 13 14 14 14 14
7 3 3 7 12 12 7 4 2 2 4 3 0 2 3 1 2 5 4 3 4 5 3 1 3 3 1 2 0 2 2 3 3 2 3 3 4 4 3 3 2 2 3 2 2 2 2 1 1 4 4 5 6 6 3 3 4 5 7 8 5 2 2 2 1 1 1 2 2 1 1 2 5 8 8 8 7 5 5 7 8 6 6 8 11 12 13 12
5 3 4 6 6 8 7 6 6 3 3 5 2 1 4 2 0 2 4 3 4 6 4 1 3 3 2 3 2 2 2 1 1 3 4 4 4 6 8 5 1 1 3 0 3 3 2 2 2 3 6 9 9 8 3 2 3 5 7 9 8 5 3 1 2 2 2 2 2 1 2 2 4 6 7 7 6 4 5 7 8 7 6 6 7 9 11 11
5 3 7 7 4 5 4 7 13 10 3 4 3 1 3 3 1 3 4 2 2 6 4 1 2 6 6 5 3 1 2 1 1 4 3 3 3 6 8 2 4 5 5 1 2 3 2 3 2 1 7 10 8 7 4 1 4 5 5 7 7 6 4 3 3 3 3 2 1 2 4 3 2 5 6 5 5 5 6 7 7 6 5 5 5 6 8 10
6 2 6 7 4 6 7 6 13 14 6 2 2 1 4 5 5 4 3 2 0 4 5 3 6 7 7 6 5 2 3 2 3 5 3 2 3 3 4 2 1 6 9 3 1 3 3 3 2 1 8 9 4 4 2 1 3 4 4 6 6 5 1 2 1 3 3 2 1 3 3 3 3 3 5 6 8 9 9 7 6 5 4 3 4 4 6 8
8 3 5 6 2 4 6 6 11 11 4 2 2 3 4 6 6 4 3 6 3 2 5 5 6 5 6 6 6 5 7 7 3 5 4 2 3 2 1 3 3 5 8 4 2 3 2 3 1 2 5 8 3 1 1 2 4 4 5 5 3 2 1 2 1 1 2 2 3 3 3 3 3 4 6 9 11 11 10 8 8 6 4 2 2 2 5 6
11 5 5 5 2 4 5 6 9 7 2 3 4 4 3 6 8 6 4 8 8 6 8 10 6 3 3 4 8 10 13 11 9 10 7 5 5 4 3 2 1 3 6 3 2 4 4 3 2 5 5 7 3 4 5 3 2 2 5 5 3 1 0 1 1 1 2 1 2 4 3 1 3 5 7 9 11 11 10 8 7 6 5 3 1 1 3 5
18 10 7 5 1 3 5 5 5 4 3 5 7 6 4 5 7 8 4 6 9 8 8 11 9 6 3 4 9 12 14 12 13 15 13 12 13 11 10 7 3 2 2 2 2 1 2 2 3 4 4 7 6 6 7 3 4 2 5 3 1 1 0 1 1 2 3 4 3 1 1 2 2 1 2 4 5 7 8 7 6 5 5 4 3 2 2 4
Wind_Direction
44 42 35 44 49 30 21 28 61 101 129 140 135 133 123 100 74 48 31 24 23 22 17 15 11 7 6 4 9 19 35 41 18 8 14 17 14 10 8 3 360 360 360 356 355 356 1 9 15 14 355 349 6 11 6 357 2 183 132 219 247 185 171 243 117 308 338 8 318 273 216 206 213 220 212 206 203 182 174 183 185 188 198 192 196 196 180 173
42 38 32 43 37 20 14 12 40 135 154 158 150 148 138 116 75 41 28 25 26 25 20 19 14 9 5 360 1 13 35 29 5 9 15 13 10 8 5 1 358 358 358 355 357 1 4 9 13 19 20 10 7 3 6 9 0 167 137 256 252 139 312 336 45 16 10 348 330 328 329 303 242 219 202 203 179 165 168 181 186 188 195 187 185 183 177 175
35 27 34 39 20 20 17 7 353 174 169 170 164 160 151 132 74 36 26 27 27 26 23 22 16 11 6 358 356 6 14 4 4 10 11 7 7 4 1 359 356 357 359 357 359 2 3 7 9 15 22 21 9 350 354 8 354 347 79 259 255 339 315 327 8 5 358 344 337 329 333 329 297 260 211 200 174 177 180 177 179 186 190 186 181 179 177 175
19 10 35 27 10 18 14 7 260 195 177 177 173 168 162 148 82 36 25 29 29 26 24 20 15 11 6 360 360 5 340 347 10 11 7 3 3 1 359 356 354 357 357 354 358 2 2 5 5 9 23 27 5 348 357 23 2 340 39 194 269 349 323 311 334 342 344 342 337 328 329 326 322 313 248 197 170 201 202 191 195 201 194 185 179 178 178 176
358 6 36 9 2 11 6 5 232 200 185 183 176 175 172 160 110 41 34 35 33 30 24 17 12 7 4 3 11 17 26 26 4 8 5 2 3 1 359 355 355 356 352 352 358 6 7 6 8 16 27 29 12 360 4 22 7 324 292 202 322 356 334 313 326 329 333 336 330 330 329 316 319 313 268 218 197 220 215 207 210 212 204 192 181 179 178 177
357 18 35 354 351 4 1 0 248 202 196 190 179 181 181 173 155 66 51 45 37 32 27 20 13 5 1 4 26 34 47 41 356 6 5 3 6 4 1 356 355 354 350 350 357 7 11 12 21 32 33 28 23 3 326 354 4 333 287 311 332 345 330 321 323 318 325 331 323 320 315 312 313 307 288 248 233 234 224 217 213 212 208 200 186 180 179 179
13 17 8 338 348 1 355 351 242 200 200 193 186 191 188 183 173 122 72 53 36 28 24 18 13 5 360 6 36 30 35 36 6 7 5 5 7 4 2 356 354 354 351 352 2 8 4 8 22 33 41 27 24 357 329 338 340 287 256 300 324 331 327 325 320 312 315 315 310 310 305 305 298 296 300 267 250 243 235 224 214 209 201 193 183 181 184 184
354 349 349 338 341 348 348 341 246 203 195 193 193 197 194 193 189 165 104 54 31 21 16 12 6 1 1 10 22 12 20 24 10 6 4 6 6 2 360 354 353 353 353 358 6 9 0 7 18 22 41 42 16 336 342 339 319 200 227 305 322 320 318 319 314 306 306 306 308 309 294 286 286 289 284 275 267 247 241 231 218 211 193 185 183 184 187 187
339 340 342 332 320 333 342 327 246 201 194 196 196 199 200 200 199 191 178 26 19 12 3 1 357 355 358 7 19 18 15 12 5 4 5 6 5 359 354 351 354 356 358 2 4 6 5 6 4 3 356 340 336 327 10 13 317 213 297 313 313 309 311 311 306 300 301 301 302 303 287 281 285 289 278 266 265 251 245 237 222 212 191 184 186 187 187 187
197 330 315 305 312 327 331 312 229 201 203 199 197 202 205 205 208 211 230 303 351 353 349 349 346 350 352 356 28 35 11 5 360 360 1 4 5 357 352 351 354 355 356 359 3 4 4 353 333 330 320 317 332 315 348 126 280 322 314 310 304 303 304 299 293 291 295 296 294 287 273 283 278 266 260 257 258 248 240 233 222 210 192 186 189 190 189 188
205 275 292 292 313 320 318 300 217 206 208 201 203 206 209 212 215 224 248 283 318 333 335 336 335 345 348 348 37 29 5 2 357 358 358 0 2 356 352 350 349 350 349 351 359 355 354 348 319 314 315 318 327 318 307 226 308 313 312 310 298 297 296 288 281 276 281 288 288 282 273 283 273 242 228 244 260 254 234 222 210 204 195 190 191 192 190 189
220 257 293 304 316 317 310 291 221 210 210 207 208 209 217 218 223 236 256 280 305 319 323 327 327 340 346 341 18 5 1 5 3 360 356 356 356 353 351 345 342 343 342 343 349 340 330 337 327 308 292 297 321 330 323 315 318 312 313 307 293 304 294 275 262 255 254 256 276 296 292 267 253 239 218 234 250 250 231 216 202 200 196 193 194 193 191 190
229 260 300 309 319 318 310 284 212 215 215 210 210 216 223 223 234 245 259 281 300 312 314 318 319 333 344 333 337 359 1 5 5 358 350 349 348 346 342 336 335 336 338 337 330 307 295 312 325 304 284 286 296 296 297 309 316 313 306 255 299 327 291 260 249 245 239 239 252 269 280 251 245 244 196 214 242 234 215 210 201 198 195 194 195 195 192 189
232 270 310 313 322 321 314 271 206 219 213 214 218 221 225 230 242 250 267 284 297 307 309 312 314 327 338 322 317 350 357 360 359 355 343 335 336 337 332 328 329 329 331 331 312 275 269 288 306 300 281 269 271 286 302 316 320 313 299 257 306 312 280 277 278 245 229 245 235 218 254 249 252 254 197 203 231 222 207 207 201 197 193 193 195 195 192 190
237 273 308 309 321 324 315 240 207 213 209 220 222 223 230 238 247 257 274 283 293 302 303 306 311 320 325 314 319 340 347 353 351 349 337 322 321 323 321 318 320 322 322 323 310 265 256 272 288 291 278 270 280 299 321 332 340 360 288 296 303 227 278 311 302 239 205 253 228 199 251 249 218 249 211 204 220 212 207 209 203 197 193 192 193 192 191 191
221 237 277 297 321 327 301 242 209 197 211 217 220 229 235 242 255 265 273 281 290 297 300 304 308 315 316 304 343 339 338 346 345 342 332 317 311 309 307 303 306 314 315 315 304 256 249 261 278 277 269 272 268 9 352 325 318 356 218 260 273 240 287 317 298 249 218 251 240 216 245 280 209 233 217 210 212 205 206 209 202 196 193 191 190 189 189 190
205 224 261 291 317 315 265 240 205 195 208 212 223 234 245 255 263 268 274 283 288 293 297 299 304 309 291 237 330 332 333 338 340 338 328 316 304 297 295 289 295 306 304 302 285 248 243 250 266 269 267 278 120 90 5 289 276 304 236 242 257 243 269 294 298 287 226 206 242 241 245 257 270 275 211 209 209 207 208 209 200 196 196 192 188 188 187 189
201 219 247 280 304 285 230 230 213 200 207 215 230 246 264 268 273 278 279 282 286 295 298 296 314 320 265 275 319 323 328 333 339 338 325 315 300 291 288 281 287 299 293 283 264 233 225 235 141 279 321 85 142 127 202 253 244 233 228 239 261 244 243 256 267 287 323 209 237 259 261 253 266 285 246 220 215 211 211 210 203 197 197 192 188 187 188 193
201 214 237 268 291 254 215 228 215 199 208 216 238 270 286 283 285 282 280 283 283 291 295 294 322 304 278 304 313 318 325 331 341 337 318 314 303 292 287 281 285 287 275 258 256 199 188 226 66 284 262 215 203 190 210 234 231 221 222 225 242 256 246 240 253 262 326 291 256 256 264 261 263 264 254 234 222 219 217 212 205 201 198 193 188 187 191 194
204 211 232 259 272 238 213 224 216 201 202 203 245 283 294 298 300 288 295 296 282 276 272 279 290 281 287 303 312 321 326 332 340 332 312 310 304 298 288 281 285 274 231 205 219 167 164 228 249 240 244 239 225 208 217 235 234 217 213 233 233 247 258 249 254 255 164 254 264 249 253 256 254 257 250 233 222 221 220 211 207 205 198 192 190 190 191 190
206 212 230 252 256 232 210 221 216 197 188 199 244 277 292 310 319 311 320 312 291 287 277 275 283 284 295 304 312 328 331 335 345 336 315 307 302 301 283 272 300 312 246 179 120 131 150 242 252 246 244 249 248 222 221 236 235 226 227 255 259 243 256 257 248 251 169 161 269 266 268 262 245 252 249 233 218 218 220 211 208 207 196 192 190 188 187 185
208 213 223 240 248 228 210 217 211 197 193 212 241 267 290 312 308 315 325 306 294 294 271 269 279 285 302 304 309 333 334 336 349 335 318 303 293 285 269 257 251 272 229 129 98 259 219 243 253 262 261 250 256 235 219 229 226 230 227 243 260 240 256 272 259 255 211 164 263 266 267 265 247 244 242 231 219 216 218 213 210 208 195 186 186 185 183 182
210 213 218 234 241 221 209 212 210 203 204 226 257 278 299 321 322 329 335 303 297 298 256 263 282 294 308 302 308 329 334 329 321 328 326 301 282 272 261 253 237 261 219 154 215 265 266 255 257 273 271 245 254 237 212 226 224 221 215 222 247 222 172 261 269 245 187 185 234 260 264 270 256 248 242 231 226 220 217 214 212 211 202 190 187 187 186 186
212 210 216 229 230 214 207 209 212 210 218 239 271 285 311 330 337 342 341 319 302 301 239 254 288 301 299 297 312 328 328 305 289 316 326 305 283 269 258 254 250 264 234 205 216 234 261 272 284 289 268 243 258 247 208 220 229 220 213 215 239 230 197 230 269 356 318 218 225 243 283 282 245 241 250 229 224 225 219 212 210 211 206 195 187 186 188 190
212 211 214 224 221 208 201 209 216 216 230 250 270 288 327 339 350 350 353 29 317 303 242 254 297 300 287 296 312 320 313 294 290 316 313 301 280 273 277 256 237 258 249 236 233 243 260 273 290 293 277 256 251 248 215 212 229 234 220 219 233 236 216 229 263 350 329 276 219 179 232 272 214 220 237 217 212 217 209 201 201 202 197 187 181 182 187 191
213 209 212 219 212 198 195 206 222 224 237 260 262 318 347 346 0 355 8 58 341 308 328 257 308 298 283 303 314 322 319 284 318 317 304 296 277 268 284 250 212 243 259 273 263 250 261 270 253 246 280 268 250 252 225 204 222 259 218 209 223 229 221 223 196 162 227 271 229 163 194 261 235 219 218 203 209 208 197 187 183 184 183 181 181 183 188 191
213 207 208 214 203 193 195 199 218 221 223 254 253 3 355 353 8 354 15 37 351 311 327 230 200 298 292 309 314 320 322 308 322 318 296 305 285 251 262 260 227 247 251 354 297 244 235 262 223 199 265 266 261 265 228 187 204 258 186 182 206 214 219 217 193 198 232 291 287 195 199 240 263 237 201 190 207 209 201 194 176 175 177 178 181 185 190 193
212 204 203 208 200 193 197 199 205 207 206 217 224 13 356 1 1 360 76 51 318 325 352 259 243 285 305 314 307 275 262 312 332 326 327 319 291 243 246 242 227 251 220 137 278 273 172 237 233 204 282 279 256 265 235 190 207 247 24 167 188 200 211 205 196 221 239 273 273 209 187 217 262 249 180 179 201 212 205 199 185 175 174 174 179 186 193 197
209 201 199 202 198 195 198 201 197 197 210 217 85 357 354 359 352 58 81 70 296 21 29 324 294 294 322 326 301 246 272 319 323 285 314 316 284 264 265 257 252 263 233 185 232 269 261 249 233 168 254 253 237 253 235 201 214 261 10 183 164 170 192 184 197 224 223 232 256 209 174 198 250 212 177 180 198 210 202 193 189 181 180 179 181 187 194 197
207 197 195 196 196 197 198 199 197 196 207 210 217 347 7 8 68 66 43 260 288 1 309 323 305 309 339 346 322 343 355 267 280 298 312 314 284 278 277 271 268 278 278 226 231 258 267 270 279 211 229 236 257 270 239 214 225 269 360 227 183 154 163 168 199 221 225 236 242 200 178 197 257 197 188 192 195 200 193 182 184 182 181 183 186 190 194 197
203 193 192 194 195 198 197 199 199 194 200 193 214 330 12 21 78 84 333 248 271 329 338 352 330 344 14 18 314 331 355 295 312 343 328 328 316 302 310 307 301 338 351 313 255 269 271 262 248 234 231 230 301 289 239 220 233 248 303 263 230 178 163 175 193 198 222 255 251 195 175 185 230 216 198 205 190 185 190 183 175 176 181 184 188 192 195 198
197 190 189 191 193 197 196 201 198 183 185 169 162 304 104 51 30 123 269 320 338 316 7 358 323 4 13 356 285 291 327 308 332 33 358 341 353 315 342 47 353 356 356 333 318 312 290 226 232 276 235 206 245 309 269 201 209 220 233 264 252 186 173 212 204 208 223 243 254 180 161 173 228 236 214 212 199 180 184 187 183 182 184 186 188 190 193 196
193 187 185 188 191 196 196 199 191 176 174 159 165 215 82 68 304 226 266 322 314 317 11 267 300 335 334 330 298 283 307 289 332 19 352 346 1 310 320 23 119 74 335 303 333 329 315 300 294 319 276 189 188 336 327 309 237 222 213 229 240 206 223 231 203 223 236 234 200 137 152 203 251 243 206 205 212 175 172 187 193 190 184 182 183 184 189 194
189 183 182 186 188 194 196 190 184 170 164 160 150 86 62 28 238 209 265 262 253 333 25 114 323 330 350 322 292 304 351 299 338 5 341 8 10 319 318 324 57 94 204 289 331 325 313 310 286 291 300 164 188 216 179 237 265 255 235 235 263 255 236 256 219 215 233 203 121 126 154 217 165 191 239 221 231 142 154 174 182 180 174 172 174 180 187 194
186 181 181 184 186 191 188 182 180 164 161 165 98 71 99 242 244 187 236 254 278 317 296 87 29 350 336 310 293 335 71 299 331 357 343 13 336 270 290 284 232 129 102 353 308 223 258 265 250 268 239 172 201 217 160 236 270 238 256 270 297 338 298 277 254 237 210 104 127 142 171 248 151 307 309 294 138 100 124 145 154 158 162 165 171 182 190 195
183 180 180 183 185 186 182 182 177 162 167 158 72 70 191 227 236 172 190 236 86 215 317 8 47 17 320 313 321 356 56 322 331 350 319 274 249 237 254 256 193 159 124 96 296 308 303 273 280 309 295 169 160 157 153 271 308 300 298 309 305 295 266 275 265 260 263 90 25 251 262 332 18 12 347 21 74 81 102 133 146 152 159 167 174 184 193 199
180 179 179 180 184 183 182 182 171 166 173 137 91 210 218 217 189 171 153 101 118 123 66 20 4 1 306 313 308 311 352 328 328 353 308 303 296 213 236 274 193 169 184 177 235 301 284 284 291 303 309 349 125 135 157 210 229 322 321 324 298 255 221 270 282 331 2 71 335 332 341 334 35 78 359 34 71 84 113 135 145 155 163 172 179 187 196 202
177 175 175 179 183 183 182 180 171 167 157 103 86 246 222 188 186 161 149 135 124 80 85 118 248 264 236 292 289 286 329 324 325 1 302 313 312 193 151 296 212 185 193 174 200 293 223 290 295 237 239 304 102 119 355 260 208 230 278 332 323 271 287 294 261 307 348 341 296 345 348 316 235 125 353 27 66 88 145 156 152 161 172 177 182 189 196 201
173 170 172 179 182 182 180 175 168 160 135 103 226 250 224 230 230 168 163 152 116 88 100 178 210 7 192 202 269 293 323 316 321 344 287 317 313 214 131 337 235 206 195 169 174 275 222 279 288 276 272 306 28 85 335 300 263 223 271 9 107 229 278 301 299 309 311 212 222 9 7 326 270 233 255 353 7 43 102 179 168 170 181 183 186 192 196 200
170 164 172 182 180 179 175 167 162 152 128 167 199 209 277 252 218 173 169 161 126 120 162 184 156 89 259 231 274 298 318 306 275 294 243 267 303 280 178 202 263 303 212 171 176 259 327 231 263 295 324 348 356 17 106 251 295 2 360 7 351 301 318 272 278 302 145 166 173 115 55 286 270 244 262 310 309 33 102 225 177 174 186 190 193 197 200 203
168 160 178 180 177 176 168 157 151 142 133 204 200 197 278 192 173 166 171 171 148 136 162 168 155 167 216 259 290 280 312 312 256 237 264 263 270 294 311 209 248 351 46 94 253 233 238 237 256 300 326 311 236 182 162 192 159 89 65 30 331 303 336 323 295 58 98 111 176 158 173 280 291 299 303 304 297 282 178 283 224 178 188 197 200 202 205 207
171 168 176 176 175 172 164 148 82 118 136 194 198 167 163 173 165 162 169 167 144 128 142 148 169 170 175 209 238 239 273 276 253 221 247 239 221 230 265 331 329 333 60 313 292 225 166 139 268 278 275 259 223 117 104 123 110 110 133 129 230 288 322 291 287 332 333 323 232 172 111 330 288 297 306 294 290 292 264 257 239 177 186 199 203 206 210 211
176 151 160 171 172 168 161 127 320 259 225 199 178 160 173 191 165 158 176 182 157 126 124 181 201 186 185 193 168 176 236 242 211 207 244 261 244 238 255 308 324 328 115 316 308 306 103 25 305 285 280 299 21 78 60 26 88 88 328 208 181 288 272 253 275 335 325 332 331 348 77 58 331 327 328 320 319 328 326 246 202 171 183 199 207 210 214 215
158 127 150 169 172 171 171 176 199 225 251 190 71 112 193 222 202 175 190 205 187 149 139 209 213 198 182 135 131 195 221 249 238 240 261 227 247 268 274 281 299 304 147 303 322 357 330 291 315 332 331 344 0 4 358 345 24 31 291 236 172 289 277 265 265 278 331 349 10 52 79 60 330 341 2 4 14 39 50 62 139 171 182 195 206 211 213 216
144 117 143 172 176 179 196 246 172 176 187 140 53 212 189 223 217 208 202 195 185 164 154 205 187 169 149 113 95 233 221 231 248 285 324 242 266 285 274 206 238 264 269 263 262 240 236 262 305 62 336 317 323 320 324 326 322 324 303 289 14 326 298 283 263 278 5 360 81 74 39 352 333 352 16 20 25 39 41 57 93 145 170 181 193 201 206 211
161 134 133 168 184 197 228 261 204 142 152 155 5 236 184 164 219 210 196 190 193 179 166 168 162 145 102 123 200 290 243 225 244 312 313 269 272 280 283 310 291 269 300 294 213 144 115 264 208 157 195 241 261 263 282 350 314 295 311 323 345 360 304 264 286 21 346 317 61 62 281 317 344 352 6 7 12 20 19 40 61 84 125 160 181 190 198 207
180 193 171 157 188 216 241 254 226 195 165 176 178 192 185 184 3 189 194 208 204 186 179 162 163 169 174 164 185 260 248 243 271 274 269 253 258 288 299 305 120 86 347 202 166 120 85 297 275 187 223 243 253 269 308 19 281 274 306 317 326 345 352 351 354 2 326 323 48 15 311 355 351 341 348 348 352 358 354 9 25 47 89 134 168 184 195 204
191 211 189 174 183 195 208 234 214 198 172 172 176 130 166 185 191 183 195 205 194 190 187 271 238 210 193 165 142 227 266 340 281 248 260 268 278 314 317 289 125 56 27 90 149 98 115 255 251 224 268 260 252 275 299 242 249 269 286 293 309 334 8 36 356 330 345 20 47 341 346 5 333 326 334 330 325 321 328 351 8 27 64 111 145 173 195 204
198 227 194 191 208 186 178 198 191 182 174 155 172 188 176 191 214 213 170 116 263 228 191 207 255 229 194 165 147 190 230 214 282 268 244 269 278 312 334 295 139 28 29 36 346 74 115 253 234 227 289 289 271 272 281 227 264 284 278 280 293 300 328 71 2 319 3 44 346 326 345 340 306 296 295 305 320 321 326 353 21 38 52 87 126 162 194 205
195 213 192 189 201 163 154 151 157 163 171 164 204 234 191 188 210 218 174 164 179 213 182 209 250 221 186 172 164 206 219 185 211 251 193 192 295 260 267 253 239 355 15 23 335 16 35 299 271 94 309 303 308 351 312 248 250 268 280 290 302 308 355 85 75 321 19 24 319 326 11 1 309 278 290 316 330 328 330 354 15 26 40 69 133 180 204 206
196 197 190 183 173 147 137 128 136 141 154 185 202 226 209 208 207 189 194 207 196 170 182 201 198 136 140 176 185 228 242 218 228 253 228 222 259 243 234 233 184 350 357 15 340 357 25 341 349 39 349 292 295 9 333 274 193 260 306 327 5 40 14 254 238 195 161 152 344 357 24 2 274 291 318 324 323 321 327 348 2 6 16 19 11 228 220 215
201 198 193 179 166 172 153 122 121 143 192 202 196 198 211 224 199 171 183 239 216 199 203 198 171 119 108 192 207 237 255 251 258 272 267 257 256 253 254 264 281 305 310 18 359 337 66 22 340 19 352 279 289 336 328 351 60 350 306 326 335 246 294 311 297 244 209 172 130 93 184 206 222 313 337 303 298 314 328 347 354 343 339 340 334 312 252 240
Height
1565 1564 1564 1564 1564 1563 1563 1563 1563 1563 1563 1563 1563 1563 1563 1564 1564 1564 1563 1563 1563 1562 1561 1560 1559 1558 1557 1556 1555 1555 1554 1554 1554 1553 1551 1551 1551 1550 1549 1549 1548 1547 1545 1545 1544 1543 1542 1542 1542 1542 1542 1542 1542 1543 1544 1544 1544 1545 1547 1548 1546 1544 1543 1541 1540 1541 1539 1538 1538 1536 1535 1535 1534 1534 1535 1535 1536 1536 1538 1539 1540 1541 1542 1543 1544 1546 1548 1551
1565 1565 1565 1564 1564 1564 1564 1563 1563 1563 1563 1563 1563 1563 1564 1564 1564 1564 1564 1563 1563 1562 1561 1560 1559 1558 1557 1556 1555 1555 1554 1554 1554 1553 1552 1552 1551 1551 1550 1549 1548 1547 1546 1544 1543 1542 1542 1542 1542 1542 1542 1542 1543 1544 1544 1545 1545 1545 1548 1549 1546 1545 1544 1542 1542 1542 1542 1542 1541 1538 1537 1536 1533 1533 1533 1533 1534 1535 1537 1539 1540 1541 1542 1543 1544 1546 1547 1549
1565 1565 1565 1564 1564 1564 1564 1563 1563 1563 1563 1563 1564 1564 1564 1564 1564 1564 1564 1563 1563 1562 1561 1560 1559 1558 1557 1556 1555 1554 1554 1554 1554 1553 1553 1552 1552 1551 1550 1549 1548 1547 1546 1545 1544 1543 1543 1542 1542 1543 1543 1543 1544 1544 1544 1545 1546 1546 1548 1549 1548 1548 1545 1542 1543 1544 1544 1544 1541 1539 1537 1536 1535 1534 1532 1530 1533 1534 1533 1535 1538 1540 1540 1541 1543 1544 1546 1548
1565 1565 1565 1564 1564 1564 1564 1564 1563 1563 1563 1563 1564 1564 1564 1564 1564 1564 1564 1563 1563 1562 1561 1561 1560 1558 1557 1556 1555 1555 1554 1554 1555 1554 1554 1553 1552 1552 1550 1549 1548 1547 1546 1546 1545 1544 1544 1544 1544 1543 1543 1544 1545 1545 1546 1547 1547 1547 1548 1549 1548 1549 1546 1543 1542 1544 1544 1544 1542 1540 1538 1536 1534 1534 1533 1530 1532 1533 1531 1531 1532 1534 1536 1538 1541 1543 1544 1546
1565 1565 1565 1564 1564 1564 1564 1564 1563 1563 1563 1563 1564 1564 1564 1564 1564 1564 1564 1564 1563 1563 1562 1561 1560 1559 1558 1556 1555 1555 1554 1555 1556 1555 1555 1554 1553 1552 1550 1549 1548 1548 1547 1546 1546 1545 1545 1545 1544 1544 1544 1545 1546 1546 1547 1548 1548 1548 1548 1549 1549 1549 1548 1544 1543 1543 1543 1543 1542 1540 1539 1536 1534 1533 1532 1531 1529 1529 1529 1530 1530 1531 1532 1534 1537 1541 1543 1545
1565 1565 1564 1564 1564 1564 1564 1563 1563 1563 1563 1563 1563 1564 1564 1564 1564 1564 1564 1564 1563 1563 1562 1561 1560 1559 1558 1557 1556 1555 1555 1556 1557 1556 1555 1554 1553 1552 1551 1550 1549 1548 1548 1547 1546 1545 1544 1544 1544 1545 1545 1546 1548 1547 1548 1548 1549 1550 1549 1548 1548 1548 1548 1546 1543 1542 1542 1542 1541 1540 1539 1537 1535 1533 1531 1530 1528 1527 1528 1528 1529 1530 1531 1531 1533 1537 1541 1543
1565 1565 1564 1564 1564 1564 1563 1563 1563 1563 1563 1563 1563 1563 1563 1564 1564 1564 1564 1564 1563 1562 1562 1561 1560 1559 1558 1557 1557 1556 1556 1557 1557 1556 1555 1554 1553 1552 1551 1550 1549 1549 1548 1547 1545 1545 1545 1544 1544 1546 1547 1548 1549 1549 1549 1549 1549 1550 1550 1548 1548 1548 1548 1547 1545 1542 1542 1541 1540 1540 1539 1537 1536 1533 1530 1528 1527 1528 1527 1527 1529 1529 1531 1532 1532 1534 1537 1539
1565 1564 1564 1564 1564 1563 1563 1563 1563 1563 1563 1563 1563 1563 1563 1563 1564 1564 1564 1563 1563 1562 1562 1561 1560 1559 1558 1557 1557 1556 1556 1557 1557 1556 1555 1554 1553 1552 1551 1550 1550 1549 1548 1547 1546 1546 1546 1546 1546 1547 1548 1549 1550 1550 1550 1549 1549 1549 1549 1548 1547 1547 1547 1546 1545 1543 1541 1540 1539 1538 1537 1536 1535 1534 1530 1527 1527 1527 1527 1527 1528 1529 1531 1533 1532 1532 1534 1536
1564 1564 1564 1563 1563 1563 1563 1562 1562 1562 1562 1563 1563 1563 1563 1563 1563 1564 1563 1563 1563 1562 1562 1561 1560 1559 1558 1557 1557 1557 1557 1557 1556 1555 1554 1554 1553 1552 1551 1550 1550 1549 1548 1548 1548 1548 1547 1548 1548 1548 1548 1549 1549 1549 1550 1550 1549 1548 1549 1548 1547 1546 1545 1545 1544 1542 1540 1538 1538 1537 1534 1533 1534 1534 1528 1525 1525 1526 1526 1527 1527 1528 1530 1531 1532 1532 1533 1536
1564 1564 1563 1563 1563 1563 1562 1562 1562 1562 1562 1562 1562 1562 1563 1563 1563 1563 1563 1563 1563 1562 1562 1561 1560 1559 1558 1558 1557 1557 1557 1556 1556 1555 1554 1553 1553 1552 1551 1551 1550 1549 1549 1549 1549 1548 1549 1549 1549 1549 1549 1549 1549 1549 1549 1550 1549 1548 1548 1547 1546 1545 1544 1544 1543 1542 1540 1537 1536 1535 1532 1530 1531 1532 1526 1523 1524 1524 1525 1525 1526 1527 1529 1530 1531 1532 1533 1535
1563 1563 1563 1563 1563 1562 1562 1562 1562 1562 1562 1562 1562 1562 1562 1563 1563 1563 1563 1563 1563 1562 1562 1561 1560 1559 1558 1558 1557 1557 1556 1556 1555 1554 1554 1553 1553 1552 1551 1550 1550 1549 1549 1549 1549 1549 1549 1550 1549 1549 1549 1549 1549 1548 1548 1548 1548 1548 1548 1546 1545 1544 1542 1542 1541 1540 1539 1536 1534 1534 1531 1528 1528 1526 1522 1523 1524 1524 1523 1524 1525 1526 1527 1529 1530 1532 1534 1535
1563 1563 1563 1563 1562 1562 1562 1561 1561 1561 1561 1561 1561 1561 1562 1562 1563 1563 1563 1562 1562 1562 1562 1561 1560 1559 1558 1558 1557 1557 1556 1556 1555 1554 1553 1553 1552 1552 1551 1550 1550 1550 1549 1549 1550 1549 1549 1549 1550 1550 1550 1550 1549 1548 1547 1547 1547 1546 1547 1546 1543 1541 1541 1539 1538 1537 1537 1535 1532 1534 1530 1524 1523 1521 1520 1523 1523 1523 1523 1523 1523 1524 1526 1529 1530 1532 1533 1535
1562 1562 1562 1562 1562 1562 1561 1561 1561 1561 1561 1561 1561 1561 1562 1562 1562 1562 1562 1562 1562 1562 1561 1560 1560 1559 1558 1557 1557 1557 1556 1556 1555 1554 1553 1553 1552 1552 1551 1550 1550 1549 1549 1549 1549 1549 1549 1549 1549 1549 1550 1550 1549 1548 1547 1546 1546 1545 1545 1546 1543 1543 1539 1534 1534 1533 1533 1531 1530 1535 1529 1517 1517 1518 1519 1522 1522 1522 1523 1522 1523 1523 1525 1528 1529 1531 1533 1534
1562 1562 1562 1562 1562 1562 1561 1561 1561 1560 1560 1560 1561 1561 1561 1562 1562 1562 1562 1562 1561 1561 1561 1560 1560 1559 1558 1557 1557 1557 1556 1555 1555 1554 1553 1552 1552 1551 1551 1550 1550 1549 1549 1548 1548 1548 1548 1548 1548 1549 1549 1549 1549 1548 1547 1547 1546 1545 1545 1544 1545 1546 1538 1531 1532 1532 1532 1529 1527 1533 1528 1515 1516 1518 1517 1519 1519 1520 1521 1521 1521 1522 1523 1526 1528 1531 1533 1534
1561 1561 1562 1562 1562 1561 1561 1561 1560 1560 1560 1560 1560 1561 1561 1561 1561 1562 1562 1561 1561 1561 1560 1560 1559 1559 1558 1557 1557 1557 1556 1555 1554 1553 1553 1552 1551 1551 1550 1550 1549 1548 1548 1547 1547 1547 1547 1548 1548 1548 1548 1548 1548 1548 1549 1548 1546 1546 1545 1542 1545 1546 1539 1532 1531 1530 1530 1527 1525 1530 1525 1515 1515 1516 1516 1518 1517 1518 1519 1519 1520 1521 1522 1524 1526 1529 1532 1533
1561 1561 1561 1561 1561 1561 1561 1561 1560 1560 1560 1560 1560 1560 1561 1561 1561 1561 1561 1561 1560 1560 1560 1559 1559 1559 1558 1556 1556 1556 1555 1554 1553 1552 1552 1551 1551 1550 1549 1549 1548 1548 1547 1547 1546 1546 1547 1547 1547 1548 1547 1548 1549 1550 1551 1550 1548 1548 1547 1544 1543 1544 1541 1535 1530 1526 1528 1527 1525 1526 1522 1515 1514 1515 1515 1516 1517 1517 1518 1518 1519 1520 1521 1523 1525 1527 1529 1531
1560 1560 1561 1561 1561 1561 1561 1560 1560 1559 1559 1560 1560 1560 1561 1561 1561 1561 1560 1560 1560 1559 1559 1559 1558 1558 1557 1556 1556 1556 1555 1554 1552 1552 1551 1550 1550 1549 1549 1548 1548 1547 1546 1546 1546 1546 1546 1547 1547 1547 1547 1548 1549 1550 1552 1550 1546 1546 1547 1546 1543 1542 1542 1537 1530 1525 1525 1527 1525 1523 1521 1518 1515 1514 1514 1515 1516 1517 1517 1517 1518 1519 1521 1521 1523 1524 1526 1528
1560 1560 1560 1560 1561 1560 1560 1560 1560 1559 1559 1560 1560 1560 1560 1560 1560 1560 1560 1559 1559 1558 1558 1558 1558 1557 1556 1556 1556 1555 1554 1553 1552 1551 1550 1549 1549 1549 1548 1548 1548 1547 1546 1546 1545 1545 1546 1546 1547 1547 1547 1548 1549 1550 1551 1545 1540 1540 1543 1544 1541 1540 1540 1538 1532 1526 1524 1526 1525 1523 1522 1520 1517 1515 1515 1514 1515 1515 1515 1516 1517 1518 1519 1520 1521 1522 1524 1526
1559 1560 1560 1560 1560 1560 1560 1560 1560 1560 1560 1560 1560 1560 1560 1560 1559 1559 1559 1558 1558 1558 1557 1557 1558 1558 1557 1556 1556 1555 1553 1552 1551 1550 1549 1549 1548 1548 1548 1547 1547 1547 1546 1546 1545 1545 1546 1546 1547 1547 1545 1544 1544 1545 1542 1537 1534 1536 1538 1539 1538 1537 1535 1533 1530 1526 1526 1527 1526 1524 1523 1521 1520 1516 1514 1514 1514 1514 1515 1516 1516 1516 1517 1518 1519 1521 1522 1523
1559 1559 1559 1560 1560 1560 1560 1560 1560 1560 1560 1560 1560 1560 1560 1559 1559 1558 1558 1557 1557 1557 1557 1557 1557 1557 1557 1556 1555 1554 1552 1551 1550 1549 1548 1548 1548 1547 1547 1547 1546 1546 1546 1545 1545 1545 1546 1547 1546 1542 1537 1535 1536 1537 1535 1533 1534 1536 1538 1537 1537 1537 1533 1528 1527 1525 1526 1527 1524 1522 1521 1520 1519 1516 1513 1513 1513 1513 1513 1514 1514 1515 1515 1516 1518 1519 1521 1523
1558 1558 1559 1560 1560 1560 1560 1560 1560 1560 1560 1560 1560 1560 1560 1559 1559 1558 1557 1556 1555 1556 1556 1556 1556 1556 1556 1555 1555 1553 1552 1550 1549 1548 1548 1548 1548 1547 1546 1546 1546 1546 1545 1545 1546 1545 1547 1546 1538 1531 1531 1531 1532 1533 1534 1534 1534 1536 1537 1538 1537 1536 1530 1525 1525 1523 1524 1527 1524 1520 1520 1519 1516 1514 1512 1511 1510 1510 1510 1511 1512 1513 1514 1515 1517 1519 1521 1523
1557 1558 1559 1559 1559 1560 1559 1560 1560 1559 1560 1560 1560 1560 1560 1559 1559 1559 1558 1556 1554 1554 1555 1555 1555 1556 1555 1555 1554 1553 1551 1549 1548 1547 1547 1547 1547 1546 1546 1546 1546 1545 1545 1545 1546 1546 1546 1540 1529 1525 1528 1529 1530 1531 1532 1532 1533 1534 1535 1538 1536 1531 1528 1524 1522 1521 1523 1526 1523 1519 1520 1517 1513 1511 1509 1508 1507 1506 1507 1508 1510 1512 1512 1513 1515 1517 1519 1521
1557 1557 1558 1559 1559 1559 1559 1560 1559 1559 1559 1559 1560 1560 1559 1559 1559 1558 1558 1556 1554 1553 1554 1555 1555 1555 1554 1554 1554 1553 1551 1549 1548 1547 1547 1547 1546 1546 1546 1545 1545 1544 1544 1544 1545 1545 1541 1531 1524 1525 1527 1528 1529 1528 1530 1531 1531 1532 1532 1535 1530 1524 1525 1522 1518 1520 1520 1521 1520 1517 1519 1516 1511 1509 1505 1504 1505 1504 1505 1506 1508 1510 1511 1512 1513 1515 1517 1518
1556 1557 1557 1559 1559 1559 1559 1559 1559 1559 1559 1560 1560 1559 1559 1559 1558 1558 1557 1557 1555 1554 1553 1554 1554 1554 1554 1554 1553 1552 1550 1549 1548 1546 1546 1546 1545 1546 1545 1544 1544 1543 1542 1541 1542 1543 1535 1524 1522 1525 1525 1526 1527 1525 1528 1530 1529 1527 1527 1527 1522 1519 1523 1519 1518 1520 1518 1517 1516 1517 1520 1515 1508 1507 1504 1502 1503 1503 1504 1505 1506 1508 1509 1511 1512 1514 1516 1517
1555 1556 1557 1558 1558 1558 1559 1559 1559 1559 1559 1560 1559 1559 1559 1559 1559 1558 1557 1557 1556 1554 1553 1554 1554 1554 1554 1554 1553 1551 1549 1547 1546 1545 1545 1545 1545 1545 1544 1543 1543 1540 1538 1538 1539 1539 1531 1522 1522 1524 1523 1525 1525 1523 1524 1525 1525 1523 1520 1518 1516 1516 1520 1520 1520 1522 1522 1520 1513 1515 1522 1512 1502 1504 1502 1500 1501 1502 1502 1503 1504 1506 1507 1510 1511 1513 1515 1517
1555 1555 1557 1558 1558 1558 1558 1559 1559 1559 1559 1560 1559 1559 1559 1558 1559 1557 1558 1560 1557 1554 1553 1554 1554 1554 1553 1553 1552 1551 1548 1546 1545 1545 1544 1544 1544 1544 1543 1542 1541 1539 1537 1537 1537 1533 1526 1522 1522 1523 1523 1524 1524 1521 1520 1521 1523 1520 1512 1509 1512 1515 1518 1519 1521 1523 1523 1518 1510 1511 1517 1510 1499 1499 1499 1498 1499 1499 1500 1501 1502 1503 1505 1508 1510 1511 1513 1515
1554 1555 1556 1557 1557 1558 1558 1558 1559 1559 1560 1559 1559 1559 1558 1558 1558 1556 1557 1559 1555 1555 1555 1554 1554 1554 1553 1553 1552 1550 1547 1545 1544 1543 1543 1544 1543 1543 1543 1541 1539 1537 1536 1538 1536 1527 1522 1521 1521 1522 1523 1523 1522 1518 1515 1516 1520 1515 1505 1505 1510 1514 1516 1517 1520 1521 1517 1514 1511 1510 1511 1510 1503 1496 1493 1495 1498 1498 1498 1499 1500 1501 1503 1506 1508 1510 1511 1513
1553 1554 1555 1556 1557 1557 1558 1558 1558 1559 1559 1558 1559 1559 1558 1559 1558 1557 1557 1556 1554 1556 1556 1554 1554 1554 1553 1552 1550 1549 1547 1545 1544 1543 1543 1543 1542 1543 1541 1538 1537 1536 1535 1540 1536 1524 1520 1521 1519 1521 1523 1521 1518 1515 1512 1514 1514 1508 1504 1506 1508 1511 1513 1515 1518 1518 1515 1515 1512 1507 1509 1512 1504 1492 1489 1493 1496 1497 1496 1496 1498 1499 1502 1504 1507 1509 1510 1512
1552 1553 1554 1556 1556 1557 1558 1558 1558 1558 1558 1559 1559 1558 1559 1559 1557 1558 1559 1556 1555 1556 1555 1554 1554 1553 1553 1551 1549 1548 1546 1546 1546 1543 1543 1543 1542 1542 1539 1535 1535 1534 1533 1537 1535 1524 1519 1519 1519 1520 1521 1517 1512 1511 1511 1513 1510 1505 1505 1507 1507 1509 1511 1512 1515 1514 1515 1515 1507 1500 1505 1508 1500 1490 1490 1492 1493 1492 1491 1493 1495 1497 1500 1502 1505 1508 1510 1512
1551 1552 1554 1555 1556 1557 1557 1557 1558 1558 1558 1559 1558 1558 1559 1558 1557 1559 1558 1555 1556 1556 1554 1553 1554 1554 1554 1552 1549 1547 1546 1546 1545 1544 1542 1542 1541 1540 1537 1534 1534 1534 1534 1535 1531 1524 1519 1518 1519 1519 1515 1512 1509 1508 1509 1509 1508 1505 1506 1506 1505 1508 1509 1511 1513 1512 1512 1507 1497 1494 1499 1502 1497 1489 1487 1487 1485 1486 1488 1490 1493 1496 1499 1501 1503 1506 1508 1510
1550 1552 1553 1554 1555 1556 1557 1557 1557 1558 1558 1558 1559 1559 1558 1558 1560 1558 1556 1556 1557 1556 1554 1554 1556 1556 1557 1557 1552 1548 1547 1546 1545 1544 1543 1542 1541 1539 1536 1534 1534 1532 1531 1531 1527 1522 1518 1516 1516 1513 1509 1510 1510 1508 1506 1506 1507 1507 1507 1506 1504 1504 1506 1507 1507 1508 1509 1500 1490 1491 1495 1500 1497 1486 1482 1482 1479 1481 1484 1487 1490 1494 1497 1499 1501 1504 1506 1509
1549 1551 1552 1554 1555 1556 1556 1557 1557 1558 1558 1558 1559 1558 1558 1558 1557 1556 1557 1557 1554 1555 1557 1558 1558 1558 1559 1560 1556 1551 1549 1547 1545 1545 1545 1544 1544 1542 1540 1540 1540 1534 1531 1532 1529 1521 1512 1510 1512 1509 1507 1509 1510 1508 1505 1505 1507 1508 1508 1507 1503 1502 1503 1503 1501 1501 1500 1493 1488 1490 1492 1495 1492 1481 1479 1481 1478 1479 1481 1484 1487 1489 1492 1496 1499 1502 1505 1508
1549 1550 1552 1553 1554 1556 1556 1556 1557 1557 1557 1559 1558 1558 1559 1556 1554 1560 1563 1557 1553 1558 1561 1560 1560 1561 1560 1557 1554 1553 1551 1547 1546 1546 1546 1547 1545 1544 1544 1545 1545 1541 1538 1539 1538 1529 1514 1506 1508 1507 1506 1508 1508 1508 1506 1505 1506 1506 1506 1505 1500 1498 1497 1496 1494 1492 1489 1486 1486 1489 1490 1489 1482 1477 1478 1479 1478 1479 1480 1483 1486 1488 1491 1494 1497 1501 1504 1506
1548 1550 1551 1553 1554 1555 1556 1556 1557 1557 1558 1559 1558 1559 1559 1554 1556 1565 1564 1559 1560 1562 1563 1562 1561 1560 1559 1557 1555 1554 1550 1547 1549 1548 1545 1546 1544 1542 1543 1544 1545 1545 1544 1542 1540 1538 1527 1512 1507 1505 1505 1506 1507 1506 1506 1507 1506 1504 1503 1503 1498 1494 1494 1489 1485 1485 1483 1482 1486 1489 1488 1483 1477 1477 1479 1478 1478 1479 1480 1482 1485 1488 1492 1494 1497 1500 1503 1505
1548 1549 1551 1553 1554 1555 1556 1556 1557 1558 1558 1558 1559 1560 1558 1552 1556 1563 1560 1560 1564 1563 1561 1563 1563 1559 1557 1558 1558 1556 1552 1549 1550 1549 1545 1545 1544 1542 1542 1543 1545 1545 1544 1541 1537 1538 1534 1517 1506 1504 1504 1505 1505 1504 1506 1506 1504 1503 1503 1502 1498 1497 1498 1492 1485 1484 1482 1479 1483 1485 1483 1480 1478 1480 1480 1477 1478 1480 1480 1482 1484 1487 1490 1493 1496 1499 1501 1504
1547 1549 1550 1552 1553 1554 1556 1556 1557 1558 1557 1559 1559 1559 1556 1553 1556 1560 1559 1561 1563 1562 1560 1559 1561 1559 1555 1555 1557 1556 1554 1552 1552 1549 1545 1545 1544 1544 1543 1542 1544 1544 1542 1543 1541 1539 1534 1516 1503 1504 1503 1503 1505 1504 1506 1506 1503 1503 1502 1500 1501 1501 1502 1495 1484 1482 1481 1477 1481 1482 1480 1481 1481 1480 1480 1478 1478 1481 1482 1483 1485 1487 1489 1492 1495 1497 1499 1502
1547 1549 1550 1552 1553 1554 1555 1556 1557 1557 1558 1559 1558 1557 1558 1557 1557 1560 1561 1562 1562 1563 1560 1556 1559 1561 1558 1556 1555 1555 1555 1553 1553 1551 1546 1544 1542 1541 1544 1542 1542 1543 1542 1543 1541 1540 1539 1521 1504 1504 1503 1501 1505 1505 1505 1506 1505 1505 1504 1501 1502 1500 1500 1497 1487 1480 1479 1479 1481 1483 1482 1484 1482 1480 1481 1481 1480 1483 1484 1484 1486 1488 1489 1492 1494 1495 1497 1500
1547 1549 1550 1551 1552 1554 1555 1555 1557 1557 1558 1560 1558 1557 1560 1559 1558 1560 1561 1561 1562 1563 1561 1558 1560 1562 1564 1562 1556 1556 1557 1550 1551 1553 1549 1545 1541 1540 1543 1541 1540 1542 1542 1542 1541 1540 1542 1528 1507 1503 1504 1502 1504 1505 1504 1505 1505 1505 1505 1503 1503 1499 1496 1496 1490 1482 1480 1480 1483 1484 1483 1484 1483 1483 1484 1484 1483 1484 1485 1485 1486 1487 1489 1490 1493 1495 1497 1500
1547 1548 1550 1551 1552 1553 1555 1555 1557 1557 1558 1559 1557 1556 1559 1560 1559 1560 1560 1560 1562 1562 1560 1562 1563 1563 1566 1565 1560 1560 1559 1553 1553 1555 1550 1546 1543 1539 1542 1542 1539 1541 1541 1541 1543 1540 1541 1536 1515 1502 1503 1503 1501 1503 1504 1504 1504 1504 1504 1503 1504 1504 1499 1497 1495 1490 1485 1482 1483 1486 1483 1482 1484 1486 1485 1485 1485 1484 1485 1486 1486 1486 1488 1489 1492 1495 1497 1499
1547 1548 1549 1550 1551 1553 1555 1555 1557 1557 1557 1558 1557 1557 1560 1560 1559 1560 1560 1560 1561 1561 1561 1564 1565 1563 1564 1565 1564 1564 1562 1559 1558 1556 1552 1550 1545 1539 1541 1542 1540 1541 1541 1541 1543 1541 1540 1541 1524 1505 1502 1502 1501 1503 1505 1506 1506 1505 1505 1505 1506 1506 1502 1498 1497 1497 1493 1483 1480 1484 1484 1484 1486 1486 1485 1485 1485 1485 1485 1486 1486 1487 1489 1490 1492 1494 1496 1498
1546 1548 1548 1549 1551 1552 1554 1555 1556 1558 1558 1558 1558 1559 1560 1559 1558 1560 1560 1560 1561 1561 1563 1564 1563 1563 1563 1563 1564 1566 1564 1561 1559 1558 1554 1551 1547 1541 1541 1542 1540 1541 1541 1540 1541 1541 1539 1539 1532 1518 1509 1502 1501 1507 1509 1507 1508 1509 1508 1509 1511 1510 1506 1498 1491 1495 1499 1492 1486 1484 1481 1484 1488 1487 1485 1485 1484 1485 1486 1486 1486 1487 1489 1491 1492 1494 1496 1498
1545 1546 1547 1548 1550 1552 1553 1555 1557 1558 1557 1555 1555 1557 1558 1558 1559 1559 1559 1559 1560 1561 1563 1564 1563 1563 1564 1563 1564 1567 1565 1561 1559 1557 1553 1551 1548 1544 1541 1541 1541 1541 1541 1539 1539 1540 1539 1539 1537 1526 1512 1503 1503 1509 1510 1509 1510 1511 1509 1511 1512 1511 1511 1504 1493 1493 1498 1497 1496 1490 1481 1484 1489 1487 1486 1485 1484 1485 1486 1486 1487 1487 1489 1491 1493 1495 1497 1498
1545 1546 1547 1548 1550 1551 1553 1555 1557 1558 1557 1555 1555 1556 1556 1558 1558 1558 1559 1559 1559 1560 1562 1563 1562 1561 1562 1563 1564 1566 1565 1559 1556 1553 1552 1552 1548 1542 1541 1542 1541 1541 1541 1538 1538 1539 1538 1539 1535 1520 1504 1501 1507 1511 1511 1511 1511 1509 1508 1511 1511 1511 1512 1508 1503 1503 1499 1495 1495 1487 1480 1486 1490 1487 1487 1485 1483 1484 1484 1485 1486 1487 1489 1491 1493 1495 1496 1498
1545 1546 1547 1548 1550 1551 1551 1551 1552 1553 1555 1555 1555 1555 1556 1557 1557 1557 1558 1557 1557 1559 1560 1561 1561 1559 1561 1563 1563 1564 1564 1558 1553 1552 1552 1552 1546 1539 1540 1541 1540 1541 1540 1538 1539 1539 1536 1536 1532 1521 1508 1501 1501 1503 1505 1507 1508 1508 1508 1509 1509 1511 1512 1508 1507 1506 1500 1499 1501 1488 1481 1490 1492 1488 1488 1486 1484 1485 1485 1485 1486 1487 1489 1491 1492 1495 1496 1498
1545 1546 1548 1549 1549 1551 1550 1550 1550 1551 1554 1555 1554 1554 1555 1555 1556 1556 1556 1556 1556 1557 1558 1559 1560 1559 1561 1563 1562 1563 1564 1559 1555 1553 1553 1552 1545 1539 1539 1539 1540 1540 1539 1539 1540 1539 1538 1537 1532 1526 1523 1516 1507 1504 1507 1509 1510 1508 1506 1507 1508 1511 1512 1508 1505 1501 1496 1500 1505 1497 1491 1494 1493 1489 1490 1488 1488 1488 1487 1488 1488 1488 1490 1490 1492 1494 1495 1497
1543 1545 1548 1549 1550 1550 1549 1549 1550 1550 1552 1552 1550 1552 1553 1553 1554 1555 1555 1555 1556 1556 1556 1557 1559 1560 1560 1562 1561 1560 1561 1561 1559 1557 1554 1550 1544 1539 1539 1539 1538 1539 1539 1539 1539 1539 1542 1541 1535 1529 1528 1524 1516 1512 1516 1520 1517 1510 1504 1504 1507 1509 1512 1509 1502 1499 1499 1499 1501 1502 1501 1498 1494 1493 1492 1492 1492 1491 1490 1490 1490 1490 1490 1491 1492 1493 1495 1497
1541 1541 1544 1546 1548 1549 1549 1549 1549 1549 1549 1548 1546 1548 1551 1551 1553 1555 1555 1555 1555 1555 1556 1557 1558 1557 1557 1558 1558 1557 1558 1560 1561 1558 1553 1550 1546 1540 1538 1538 1538 1537 1538 1538 1538 1540 1539 1536 1538 1537 1529 1524 1521 1518 1522 1525 1520 1514 1510 1506 1506 1507 1510 1507 1501 1502 1505 1499 1496 1501 1504 1500 1497 1497 1495 1495 1494 1493 1492 1491 1490 1491 1491 1491 1493 1494 1495 1497
1539 1538 1539 1540 1541 1542 1545 1545 1545 1547 1548 1547 1547 1548 1550 1550 1551 1551 1552 1554 1555 1554 1554 1555 1555 1554 1554 1555 1554 1555 1556 1557 1557 1555 1551 1548 1547 1542 1537 1537 1537 1536 1537 1537 1537 1540 1537 1533 1540 1544 1531 1524 1525 1523 1525 1526 1522 1518 1514 1509 1507 1507 1506 1505 1505 1508 1508 1501 1498 1502 1503 1500 1499 1498 1496 1496 1495 1493 1493 1492 1492 1492 1492 1492 1493 1494 1495 1496
1538 1538 1538 1539 1537 1537 1539 1539 1540 1544 1547 1547 1548 1548 1548 1548 1547 1547 1550 1553 1553 1554 1553 1551 1550 1551 1553 1553 1553 1554 1553 1550 1548 1550 1549 1547 1546 1544 1538 1536 1536 1536 1536 1537 1536 1538 1536 1532 1542 1547 1530 1519 1526 1529 1527 1526 1520 1514 1511 1509 1509 1509 1508 1507 1508 1511 1509 1505 1504 1505 1503 1502 1501 1498 1496 1495 1494 1493 1492 1492 1493 1493 1493 1493 1494 1495 1496 1497
1535 1536 1537 1539 1538 1537 1537 1538 1540 1543 1546 1547 1546 1546 1547 1546 1544 1545 1548 1547 1546 1551 1553 1549 1546 1549 1552 1553 1552 1550 1548 1546 1544 1546 1547 1547 1545 1544 1541 1537 1537 1537 1536 1537 1538 1538 1533 1531 1541 1545 1525 1511 1520 1528 1526 1525 1521 1509 1504 1507 1509 1507 1507 1506 1506 1508 1506 1505 1507 1506 1502 1502 1501 1498 1497 1494 1493 1493 1492 1492 1493 1493 1493 1494 1495 1496 1497 1497
1533 1534 1536 1537 1538 1538 1538 1539 1541 1543 1545 1546 1544 1543 1544 1542 1541 1542 1543 1541 1540 1544 1548 1546 1544 1549 1552 1553 1551 1547 1544 1545 1545 1543 1545 1546 1543 1542 1541 1538 1539 1539 1537 1539 1539 1537 1536 1535 1538 1539 1521 1504 1511 1521 1521 1522 1521 1507 1499 1502 1505 1503 1503 1503 1503 1505 1503 1502 1504 1503 1501 1502 1502 1499 1497 1495 1493 1493 1492 1492 1493 1493 1494 1495 1495 1496 1497 1497
1531 1533 1535 1536 1537 1539 1539 1539 1541 1541 1540 1539 1539 1540 1539 1538 1540 1540 1539 1539 1539 1540 1542 1543 1544 1547 1550 1550 1547 1543 1541 1543 1544 1543 1543 1543 1542 1541 1540 1539 1540 1540 1540 1541 1541 1541 1542 1538 1537 1540 1523 1501 1505 1519 1517 1507 1502 1496 1495 1499 1502 1502 1502 1502 1502 1503 1503 1502 1500 1498 1499 1501 1502 1501 1500 1499 1498 1496 1494 1493 1494 1494 1494 1495 1495 1496 1496 1497